Time,TemperatureF,DewpointF,PressureIn,WindDirection,WindDirectionDegrees,WindSpeedMPH,WindSpeedGustMPH,Humidity,HourlyPrecipIn,Conditions,Clouds,dailyrainin,SoftwareType,DateUTC
2013-03-24 00:00:00,75.4,73.2,29.83,South,176,0.0,0.0,93,0.00,,---,0.03,VWS V14.01,2013-03-24 04:00:00,
2013-03-24 00:02:00,75.4,73.2,29.83,South,176,0.0,0.0,93,0.00,,---,0.03,VWS V14.01,2013-03-24 04:02:00,
2013-03-24 00:06:00,75.4,73.2,29.83,South,176,0.0,0.0,93,0.00,,---,0.00,VWS V14.01,2013-03-24 04:06:00,
2013-03-24 00:11:00,75.6,73.8,29.83,South,176,0.0,0.0,94,0.00,,---,0.00,VWS V14.01,2013-03-24 04:11:00,
2013-03-24 00:16:00,75.6,73.8,29.82,South,177,0.0,0.0,94,0.00,,---,0.00,VWS V14.01,2013-03-24 04:16:00,
2013-03-24 00:21:00,75.6,73.8,29.82,South,176,0.0,0.0,94,0.00,,---,0.00,VWS V14.01,2013-03-24 04:21:00,
2013-03-24 00:27:00,75.6,73.8,29.82,South,177,0.0,0.0,94,0.00,,---,0.00,VWS V14.01,2013-03-24 04:27:00,
2013-03-24 00:32:00,75.4,73.6,29.82,South,177,0.0,0.0,94,0.00,,---,0.00,VWS V14.01,2013-03-24 04:32:00,
2013-03-24 00:37:00,75.4,73.6,29.82,South,177,0.0,0.0,94,0.00,,---,0.00,VWS V14.01,2013-03-24 04:37:00,
2013-03-24 00:43:00,75.4,73.6,29.82,South,176,0.0,0.0,94,0.00,,---,0.00,VWS V14.01,2013-03-24 04:43:00,
2013-03-24 00:48:00,75.4,73.6,29.82,South,176,0.0,0.0,94,0.00,,---,0.00,VWS V14.01,2013-03-24 04:48:00,
2013-03-24 00:53:00,75.4,73.6,29.82,South,176,0.0,0.0,94,0.00,,---,0.00,VWS V14.01,2013-03-24 04:53:00,
2013-03-24 00:58:00,75.4,73.6,29.82,South,176,0.0,0.0,94,0.00,,---,0.00,VWS V14.01,2013-03-24 04:58:00,
2013-03-24 01:03:00,75.4,73.6,29.82,South,176,0.0,0.0,94,0.00,,---,0.00,VWS V14.01,2013-03-24 05:03:00,
2013-03-24 01:09:00,75.4,73.6,29.82,South,177,0.0,0.0,94,0.00,,---,0.00,VWS V14.01,2013-03-24 05:09:00,
2013-03-24 01:14:00,75.4,73.6,29.82,South,177,0.0,1.0,94,0.00,,---,0.00,VWS V14.01,2013-03-24 05:14:00,
2013-03-24 01:19:00,75.4,73.6,29.81,South,177,0.0,1.0,94,0.00,,---,0.00,VWS V14.01,2013-03-24 05:19:00,
2013-03-24 01:24:00,75.4,73.6,29.81,South,177,0.0,1.0,94,0.00,,---,0.00,VWS V14.01,2013-03-24 05:24:00,
2013-03-24 01:29:00,75.3,73.5,29.81,South,177,0.0,1.0,94,0.00,,---,0.00,VWS V14.01,2013-03-24 05:29:00,
2013-03-24 01:34:00,75.3,73.5,29.81,South,177,0.0,0.0,94,0.00,,---,0.00,VWS V14.01,2013-03-24 05:34:00,
2013-03-24 01:39:00,75.3,73.8,29.81,South,177,0.0,0.0,95,0.00,,---,0.00,VWS V14.01,2013-03-24 05:39:00,
2013-03-24 01:45:00,75.1,73.6,29.81,South,177,0.0,0.0,95,0.00,,---,0.00,VWS V14.01,2013-03-24 05:45:00,
2013-03-24 01:50:00,75.1,73.6,29.80,South,176,0.0,0.0,95,0.00,,---,0.00,VWS V14.01,2013-03-24 05:50:00,
2013-03-24 01:55:00,74.9,73.4,29.80,South,176,0.0,0.0,95,0.00,,---,0.00,VWS V14.01,2013-03-24 05:55:00,
2013-03-24 02:00:00,74.9,73.4,29.80,South,177,0.0,2.0,95,0.00,,---,0.00,VWS V14.01,2013-03-24 06:00:00,
2013-03-24 02:05:00,74.7,73.2,29.80,South,177,0.0,0.0,95,0.00,,---,0.00,VWS V14.01,2013-03-24 06:05:00,
2013-03-24 02:10:00,74.7,73.2,29.80,South,176,0.0,0.0,95,0.00,,---,0.00,VWS V14.01,2013-03-24 06:10:00,
2013-03-24 02:16:00,74.6,73.4,29.80,South,176,0.0,0.0,96,0.00,,---,0.00,VWS V14.01,2013-03-24 06:16:00,
2013-03-24 02:22:00,74.6,73.4,29.79,South,177,0.0,0.0,96,0.00,,---,0.00,VWS V14.01,2013-03-24 06:22:00,
2013-03-24 02:27:00,74.4,73.2,29.79,South,177,0.0,0.0,96,0.00,,---,0.00,VWS V14.01,2013-03-24 06:27:00,
2013-03-24 02:32:00,74.4,73.2,29.79,South,176,0.0,2.0,96,0.00,,---,0.00,VWS V14.01,2013-03-24 06:32:00,
2013-03-24 02:37:00,74.4,73.5,29.79,South,176,0.0,0.0,97,0.00,,---,0.00,VWS V14.01,2013-03-24 06:37:00,
2013-03-24 02:42:00,74.4,73.5,29.79,South,176,0.0,0.0,97,0.00,,---,0.00,VWS V14.01,2013-03-24 06:42:00,
2013-03-24 02:47:00,74.4,73.5,29.78,South,176,0.0,1.0,97,0.00,,---,0.00,VWS V14.01,2013-03-24 06:47:00,
2013-03-24 02:52:00,74.4,73.8,29.78,South,177,1.0,2.0,98,0.00,,---,0.00,VWS V14.01,2013-03-24 06:52:00,
2013-03-24 02:57:00,74.6,74.0,29.78,South,176,1.0,2.0,98,0.00,,---,0.00,VWS V14.01,2013-03-24 06:57:00,
2013-03-24 03:02:00,74.6,74.0,29.77,South,176,1.0,2.0,98,0.00,,---,0.00,VWS V14.01,2013-03-24 07:02:00,
2013-03-24 03:08:00,74.6,74.0,29.77,South,176,0.0,3.0,98,0.00,,---,0.00,VWS V14.01,2013-03-24 07:08:00,
2013-03-24 03:13:00,74.6,74.3,29.77,South,176,2.0,3.0,99,0.00,,---,0.00,VWS V14.01,2013-03-24 07:13:00,
2013-03-24 03:18:00,74.7,74.4,29.77,South,176,0.0,3.0,99,0.00,,---,0.00,VWS V14.01,2013-03-24 07:18:00,
2013-03-24 03:24:00,74.7,74.4,29.77,South,177,0.0,3.0,99,0.00,,---,0.00,VWS V14.01,2013-03-24 07:24:00,
2013-03-24 03:29:00,74.7,74.7,29.77,South,176,0.0,3.0,100,0.00,,---,0.00,VWS V14.01,2013-03-24 07:29:00,
2013-03-24 03:34:00,74.7,74.7,29.76,South,176,0.0,2.0,100,0.00,,---,0.00,VWS V14.01,2013-03-24 07:34:00,
2013-03-24 03:39:00,74.7,74.7,29.76,South,176,0.0,2.0,100,0.00,,---,0.00,VWS V14.01,2013-03-24 07:39:00,
2013-03-24 03:44:00,74.7,74.7,29.76,South,176,0.0,2.0,100,0.00,,---,0.00,VWS V14.01,2013-03-24 07:44:00,
2013-03-24 03:49:00,74.7,74.7,29.76,South,176,2.0,2.0,100,0.00,,---,0.00,VWS V14.01,2013-03-24 07:49:00,
2013-03-24 03:54:00,74.6,74.6,29.76,South,176,0.0,2.0,100,0.00,,---,0.00,VWS V14.01,2013-03-24 07:54:00,
2013-03-24 03:59:00,74.6,74.6,29.76,South,176,0.0,2.0,100,0.00,,---,0.00,VWS V14.01,2013-03-24 07:59:00,
2013-03-24 04:05:00,74.6,74.6,29.76,South,176,0.0,0.0,100,0.00,,---,0.00,VWS V14.01,2013-03-24 08:05:00,
2013-03-24 04:10:00,74.4,74.4,29.76,South,176,0.0,0.0,100,0.00,,---,0.00,VWS V14.01,2013-03-24 08:10:00,
2013-03-24 04:15:00,74.4,74.4,29.76,South,176,0.0,1.0,100,0.00,,---,0.00,VWS V14.01,2013-03-24 08:15:00,
2013-03-24 04:20:00,74.4,74.4,29.75,South,177,0.0,1.0,100,0.00,,---,0.00,VWS V14.01,2013-03-24 08:20:00,
2013-03-24 04:25:00,74.2,74.2,29.75,South,176,0.0,1.0,100,0.00,,---,0.00,VWS V14.01,2013-03-24 08:25:00,
2013-03-24 04:30:00,74.2,74.2,29.75,South,176,0.0,1.0,100,0.00,,---,0.00,VWS V14.01,2013-03-24 08:30:00,
2013-03-24 04:35:00,74.2,74.2,29.75,South,176,0.0,0.0,100,0.00,,---,0.00,VWS V14.01,2013-03-24 08:35:00,
2013-03-24 04:40:00,74.2,74.2,29.75,South,176,0.0,0.0,100,0.00,,---,0.00,VWS V14.01,2013-03-24 08:40:00,
2013-03-24 04:45:00,74.2,74.2,29.75,South,176,0.0,0.0,100,0.00,,---,0.00,VWS V14.01,2013-03-24 08:45:00,
2013-03-24 04:50:00,74.2,74.2,29.75,South,176,0.0,2.0,100,0.00,,---,0.00,VWS V14.01,2013-03-24 08:50:00,
2013-03-24 04:56:00,74.2,74.2,29.75,South,176,0.0,2.0,100,0.00,,---,0.00,VWS V14.01,2013-03-24 08:56:00,
2013-03-24 05:01:00,74.2,74.2,29.75,South,176,0.0,2.0,100,0.00,,---,0.00,VWS V14.01,2013-03-24 09:01:00,
2013-03-24 05:06:00,74.2,74.2,29.74,South,176,0.0,2.0,100,0.00,,---,0.00,VWS V14.01,2013-03-24 09:06:00,
2013-03-24 05:11:00,74.4,74.4,29.74,South,176,0.0,2.0,100,0.00,,---,0.00,VWS V14.01,2013-03-24 09:11:00,
2013-03-24 05:16:00,74.4,74.4,29.74,South,176,0.0,2.0,100,0.00,,---,0.00,VWS V14.01,2013-03-24 09:16:00,
2013-03-24 05:22:00,74.4,74.4,29.74,South,176,0.0,2.0,100,0.00,,---,0.00,VWS V14.01,2013-03-24 09:22:00,
2013-03-24 05:27:00,74.4,74.4,29.74,South,176,0.0,3.0,100,0.00,,---,0.00,VWS V14.01,2013-03-24 09:27:00,
2013-03-24 05:32:00,74.2,74.2,29.74,South,176,0.0,3.0,100,0.00,,---,0.00,VWS V14.01,2013-03-24 09:32:00,
2013-03-24 05:37:00,74.4,74.4,29.74,South,176,0.0,0.0,100,0.00,,---,0.00,VWS V14.01,2013-03-24 09:37:00,
2013-03-24 05:42:00,74.4,74.4,29.74,South,176,0.0,1.0,100,0.00,,---,0.00,VWS V14.01,2013-03-24 09:42:00,
2013-03-24 05:47:00,74.4,74.4,29.74,South,176,2.0,2.0,100,0.00,,---,0.00,VWS V14.01,2013-03-24 09:47:00,
2013-03-24 05:53:00,74.4,74.4,29.74,SSE,155,0.0,4.0,100,0.00,,---,0.00,VWS V14.01,2013-03-24 09:53:00,
2013-03-24 05:58:00,74.4,74.4,29.74,SSE,167,0.0,4.0,100,0.00,,---,0.00,VWS V14.01,2013-03-24 09:58:00,
2013-03-24 06:03:00,74.4,74.4,29.73,SSE,167,0.0,0.0,100,0.00,,---,0.00,VWS V14.01,2013-03-24 10:03:00,
2013-03-24 06:08:00,74.4,74.4,29.73,SSE,165,0.0,3.0,100,0.00,,---,0.00,VWS V14.01,2013-03-24 10:08:00,
2013-03-24 06:13:00,74.4,74.4,29.73,SSE,167,0.0,3.0,100,0.00,,---,0.00,VWS V14.01,2013-03-24 10:13:00,
2013-03-24 06:18:00,74.4,74.4,29.73,SSE,167,2.0,3.0,100,0.00,,---,0.00,VWS V14.01,2013-03-24 10:18:00,
2013-03-24 06:23:00,74.4,74.4,29.73,SSE,167,2.0,3.0,100,0.00,,---,0.00,VWS V14.01,2013-03-24 10:23:00,
2013-03-24 06:28:00,74.4,74.4,29.73,SSE,167,2.0,3.0,100,0.00,,---,0.00,VWS V14.01,2013-03-24 10:28:00,
2013-03-24 06:34:00,74.4,74.4,29.73,SSE,168,0.0,0.0,100,0.00,,---,0.00,VWS V14.01,2013-03-24 10:34:00,
2013-03-24 06:39:00,74.4,74.4,29.73,South,170,0.0,2.0,100,0.00,,---,0.00,VWS V14.01,2013-03-24 10:39:00,
2013-03-24 06:44:00,74.4,74.4,29.73,South,170,2.0,2.0,100,0.00,,---,0.00,VWS V14.01,2013-03-24 10:44:00,
2013-03-24 06:49:00,74.4,74.4,29.73,South,171,2.0,3.0,100,0.00,,---,0.00,VWS V14.01,2013-03-24 10:49:00,
2013-03-24 06:54:00,74.4,74.4,29.73,SSW,200,0.0,6.0,100,0.00,,---,0.00,VWS V14.01,2013-03-24 10:54:00,
2013-03-24 06:59:00,74.4,74.4,29.73,SSW,197,0.0,6.0,100,0.00,,---,0.00,VWS V14.01,2013-03-24 10:59:00,
2013-03-24 07:04:00,74.4,74.4,29.72,SSW,207,1.0,3.0,100,0.00,,---,0.00,VWS V14.01,2013-03-24 11:04:00,
2013-03-24 07:09:00,74.4,74.4,29.72,South,175,0.0,4.0,100,0.00,,---,0.00,VWS V14.01,2013-03-24 11:09:00,
2013-03-24 07:15:00,74.4,74.4,29.72,SW,214,3.0,7.0,100,0.00,,---,0.00,VWS V14.01,2013-03-24 11:15:00,
2013-03-24 07:20:00,74.6,74.6,29.72,SSW,206,0.0,7.0,100,0.00,,---,0.00,VWS V14.01,2013-03-24 11:20:00,
2013-03-24 07:25:00,74.6,74.6,29.72,South,190,3.0,7.0,100,0.00,,---,0.00,VWS V14.01,2013-03-24 11:25:00,
2013-03-24 07:30:00,74.6,74.6,29.72,SSE,168,1.0,7.0,100,0.00,,---,0.00,VWS V14.01,2013-03-24 11:30:00,
2013-03-24 07:35:00,74.6,74.6,29.72,South,188,5.0,5.0,100,0.00,,---,0.00,VWS V14.01,2013-03-24 11:35:00,
2013-03-24 07:40:00,74.6,74.6,29.72,SSW,213,3.0,5.0,100,0.00,,---,0.00,VWS V14.01,2013-03-24 11:40:00,
2013-03-24 07:45:00,74.7,74.7,29.72,SSW,210,1.0,6.0,100,0.00,,---,0.00,VWS V14.01,2013-03-24 11:45:00,
2013-03-24 07:51:00,74.7,74.7,29.73,South,177,2.0,6.0,100,0.00,,---,0.00,VWS V14.01,2013-03-24 11:51:00,
2013-03-24 07:56:00,74.7,74.7,29.73,South,187,2.0,6.0,100,0.00,,---,0.00,VWS V14.01,2013-03-24 11:56:00,
2013-03-24 08:02:00,74.7,74.7,29.71,South,190,3.0,6.0,100,0.00,,---,0.00,VWS V14.01,2013-03-24 12:02:00,
2013-03-24 08:07:00,74.9,74.9,29.71,SSW,205,1.0,4.0,100,0.00,,---,0.00,VWS V14.01,2013-03-24 12:07:00,
2013-03-24 08:12:00,74.9,74.9,29.71,SSW,202,4.0,6.0,100,0.00,,---,0.00,VWS V14.01,2013-03-24 12:12:00,
2013-03-24 08:17:00,74.9,74.9,29.71,SE,146,2.0,7.0,100,0.00,,---,0.00,VWS V14.01,2013-03-24 12:17:00,
2013-03-24 08:23:00,75.1,75.1,29.71,SSW,207,2.0,7.0,100,0.00,,---,0.00,VWS V14.01,2013-03-24 12:23:00,
2013-03-24 08:28:00,75.3,75.3,29.71,South,191,2.0,7.0,100,0.00,,---,0.00,VWS V14.01,2013-03-24 12:28:00,
2013-03-24 08:33:00,75.3,75.3,29.71,SSW,202,2.0,4.0,100,0.00,,---,0.00,VWS V14.01,2013-03-24 12:33:00,
2013-03-24 08:38:00,75.6,75.6,29.71,SSW,201,5.0,6.0,100,0.00,,---,0.00,VWS V14.01,2013-03-24 12:38:00,
2013-03-24 08:43:00,75.8,75.8,29.71,SSE,148,1.0,8.0,100,0.00,,---,0.00,VWS V14.01,2013-03-24 12:43:00,
2013-03-24 08:48:00,76.1,76.1,29.71,South,180,3.0,8.0,100,0.01,,---,0.01,VWS V14.01,2013-03-24 12:48:00,
2013-03-24 08:53:00,76.3,76.3,29.71,SSW,201,2.0,11.0,100,0.01,,---,0.01,VWS V14.01,2013-03-24 12:53:00,
2013-03-24 08:58:00,76.8,76.5,29.71,SW,214,3.0,12.0,99,0.01,,---,0.01,VWS V14.01,2013-03-24 12:58:00,
2013-03-24 09:04:00,77.2,76.6,29.71,SW,215,6.0,9.0,98,0.01,,---,0.01,VWS V14.01,2013-03-24 13:04:00,
2013-03-24 09:09:00,77.4,76.2,29.71,SSW,200,3.0,9.0,96,0.01,,---,0.01,VWS V14.01,2013-03-24 13:09:00,
2013-03-24 09:14:00,77.6,76.1,29.71,SW,215,3.0,9.0,95,0.01,,---,0.01,VWS V14.01,2013-03-24 13:14:00,
2013-03-24 09:19:00,77.9,76.0,29.71,South,177,3.0,9.0,94,0.01,,---,0.01,VWS V14.01,2013-03-24 13:19:00,
2013-03-24 09:24:00,78.3,76.1,29.71,South,172,2.0,9.0,93,0.01,,---,0.01,VWS V14.01,2013-03-24 13:24:00,
2013-03-24 09:30:00,78.6,75.8,29.71,SSW,199,3.0,10.0,91,0.01,,---,0.01,VWS V14.01,2013-03-24 13:30:00,
2013-03-24 09:35:00,78.8,75.6,29.71,SE,140,4.0,7.0,90,0.01,,---,0.01,VWS V14.01,2013-03-24 13:35:00,
2013-03-24 09:40:00,79.2,75.7,29.71,SSW,210,13.0,13.0,89,0.01,,---,0.01,VWS V14.01,2013-03-24 13:40:00,
2013-03-24 09:45:00,79.4,75.5,29.71,South,183,5.0,13.0,88,0.01,,---,0.01,VWS V14.01,2013-03-24 13:45:00,
2013-03-24 09:50:00,79.6,75.1,29.71,WSW,252,10.0,13.0,86,0.01,,---,0.01,VWS V14.01,2013-03-24 13:50:00,
2013-03-24 09:56:00,79.9,75.0,29.71,SSW,208,5.0,14.0,85,0.01,,---,0.01,VWS V14.01,2013-03-24 13:56:00,
2013-03-24 10:01:00,80.3,74.7,29.71,South,175,4.0,17.0,83,0.01,,---,0.01,VWS V14.01,2013-03-24 14:01:00,
2013-03-24 10:06:00,80.7,75.1,29.71,SSW,209,5.0,13.0,83,0.00,,---,0.01,VWS V14.01,2013-03-24 14:06:00,
2013-03-24 10:11:00,81.1,74.7,29.71,SW,223,7.0,13.0,81,0.00,,---,0.01,VWS V14.01,2013-03-24 14:11:00,
2013-03-24 10:17:00,81.1,74.0,29.71,SSW,199,7.0,14.0,79,0.00,,---,0.01,VWS V14.01,2013-03-24 14:17:00,
2013-03-24 10:22:00,80.9,74.2,29.71,SW,223,11.0,14.0,80,0.00,,---,0.01,VWS V14.01,2013-03-24 14:22:00,
2013-03-24 10:27:00,80.7,74.3,29.71,SSW,198,7.0,14.0,81,0.00,,---,0.01,VWS V14.01,2013-03-24 14:27:00,
2013-03-24 10:32:00,81.1,74.3,29.71,South,173,5.0,14.0,80,0.00,,---,0.01,VWS V14.01,2013-03-24 14:32:00,
2013-03-24 10:37:00,81.4,74.3,29.71,SSW,202,2.0,7.0,79,0.00,,---,0.01,VWS V14.01,2013-03-24 14:37:00,
2013-03-24 10:43:00,82.4,74.5,29.71,SW,223,6.0,11.0,77,0.00,,---,0.01,VWS V14.01,2013-03-24 14:43:00,
2013-03-24 10:48:00,83.0,74.3,29.71,SSW,213,5.0,19.0,75,0.00,,---,0.01,VWS V14.01,2013-03-24 14:48:00,
2013-03-24 10:53:00,83.2,74.1,29.71,SSW,198,9.0,19.0,74,0.00,,---,0.01,VWS V14.01,2013-03-24 14:53:00,
2013-03-24 10:58:00,82.6,73.5,29.71,SW,235,3.0,19.0,74,0.00,,---,0.01,VWS V14.01,2013-03-24 14:58:00,
2013-03-24 11:03:00,82.2,73.5,29.71,SW,221,6.0,13.0,75,0.00,,---,0.01,VWS V14.01,2013-03-24 15:03:00,
2013-03-24 11:09:00,82.2,73.1,29.71,South,178,10.0,13.0,74,0.00,,---,0.01,VWS V14.01,2013-03-24 15:09:00,
2013-03-24 11:14:00,82.8,72.9,29.71,SSW,196,10.0,15.0,72,0.00,,---,0.01,VWS V14.01,2013-03-24 15:14:00,
2013-03-24 11:19:00,83.8,73.4,29.71,SW,227,10.0,15.0,71,0.00,,---,0.01,VWS V14.01,2013-03-24 15:19:00,
2013-03-24 11:24:00,84.3,73.0,29.71,SW,223,5.0,15.0,69,0.00,,---,0.01,VWS V14.01,2013-03-24 15:24:00,
2013-03-24 11:29:00,84.7,73.4,29.71,SW,234,14.0,15.0,69,0.00,,---,0.01,VWS V14.01,2013-03-24 15:29:00,
2013-03-24 11:35:00,84.7,73.4,29.72,SSW,201,10.0,10.0,69,0.00,,---,0.01,VWS V14.01,2013-03-24 15:35:00,
2013-03-24 11:40:00,84.5,72.3,29.72,SW,228,12.0,16.0,67,0.00,,---,0.01,VWS V14.01,2013-03-24 15:40:00,
2013-03-24 11:45:00,84.1,72.8,29.72,SW,222,3.0,18.0,69,0.00,,---,0.01,VWS V14.01,2013-03-24 15:45:00,
2013-03-24 11:50:00,84.1,72.4,29.71,SW,223,9.0,26.0,68,0.00,,---,0.01,VWS V14.01,2013-03-24 15:50:00,
2013-03-24 11:55:00,84.7,73.0,29.71,SSW,213,5.0,26.0,68,0.00,,---,0.01,VWS V14.01,2013-03-24 15:55:00,
2013-03-24 12:01:00,85.5,73.3,29.71,SW,228,6.0,26.0,67,0.00,,---,0.01,VWS V14.01,2013-03-24 16:01:00,
2013-03-24 12:06:00,85.7,73.0,29.71,SW,225,6.0,10.0,66,0.00,,---,0.01,VWS V14.01,2013-03-24 16:06:00,
2013-03-24 12:12:00,85.7,72.6,29.71,SW,232,3.0,12.0,65,0.00,,---,0.01,VWS V14.01,2013-03-24 16:12:00,
2013-03-24 12:17:00,85.5,72.4,29.71,SW,218,10.0,18.0,65,0.00,,---,0.01,VWS V14.01,2013-03-24 16:17:00,
2013-03-24 12:22:00,86.3,72.7,29.71,SW,218,10.0,18.0,64,0.00,,---,0.01,VWS V14.01,2013-03-24 16:22:00,
2013-03-24 12:27:00,86.5,72.9,29.71,SW,234,6.0,18.0,64,0.00,,---,0.01,VWS V14.01,2013-03-24 16:27:00,
2013-03-24 12:32:00,87.4,72.8,29.71,SW,225,11.0,18.0,62,0.00,,---,0.01,VWS V14.01,2013-03-24 16:32:00,
2013-03-24 12:37:00,87.4,72.8,29.71,SW,232,7.0,16.0,62,0.00,,---,0.01,VWS V14.01,2013-03-24 16:37:00,
2013-03-24 12:43:00,87.4,72.8,29.71,SW,226,6.0,16.0,62,0.00,,---,0.01,VWS V14.01,2013-03-24 16:43:00,
2013-03-24 12:48:00,87.8,72.7,29.70,South,187,4.0,17.0,61,0.00,,---,0.01,VWS V14.01,2013-03-24 16:48:00,
2013-03-24 12:53:00,87.6,72.0,29.70,SW,235,5.0,17.0,60,0.00,,---,0.01,VWS V14.01,2013-03-24 16:53:00,
2013-03-24 12:58:00,87.4,72.3,29.70,WSW,247,12.0,17.0,61,0.00,,---,0.01,VWS V14.01,2013-03-24 16:58:00,
2013-03-24 13:03:00,87.2,72.1,29.69,SW,221,11.0,11.0,61,0.00,,---,0.01,VWS V14.01,2013-03-24 17:03:00,
2013-03-24 13:09:00,87.2,71.6,29.69,SW,234,11.0,15.0,60,0.00,,---,0.01,VWS V14.01,2013-03-24 17:09:00,
2013-03-24 13:14:00,87.0,71.9,29.69,SW,232,5.0,15.0,61,0.00,,---,0.01,VWS V14.01,2013-03-24 17:14:00,
2013-03-24 13:19:00,87.4,72.3,29.70,SSW,212,14.0,16.0,61,0.00,,---,0.01,VWS V14.01,2013-03-24 17:19:00,
2013-03-24 13:25:00,88.2,73.1,29.70,SW,236,5.0,16.0,61,0.00,,---,0.01,VWS V14.01,2013-03-24 17:25:00,
2013-03-24 13:30:00,88.2,72.1,29.70,SW,236,11.0,17.0,59,0.00,,---,0.01,VWS V14.01,2013-03-24 17:30:00,
2013-03-24 13:35:00,87.2,71.6,29.69,WSW,240,11.0,13.0,60,0.00,,---,0.01,VWS V14.01,2013-03-24 17:35:00,
2013-03-24 13:40:00,87.2,72.1,29.69,SW,230,7.0,15.0,61,0.00,,---,0.01,VWS V14.01,2013-03-24 17:40:00,
2013-03-24 13:45:00,87.8,72.2,29.69,WSW,249,5.0,18.0,60,0.00,,---,0.01,VWS V14.01,2013-03-24 17:45:00,
2013-03-24 13:50:00,88.4,72.3,29.69,SW,218,7.0,18.0,59,0.00,,---,0.01,VWS V14.01,2013-03-24 17:50:00,
2013-03-24 13:56:00,88.6,72.4,29.69,WSW,244,12.0,18.0,59,0.00,,---,0.01,VWS V14.01,2013-03-24 17:56:00,
2013-03-24 14:01:00,87.8,72.7,29.69,SW,230,18.0,18.0,61,0.00,,---,0.01,VWS V14.01,2013-03-24 18:01:00,
2013-03-24 14:06:00,87.0,71.9,29.69,SW,231,10.0,12.0,61,0.00,,---,0.01,VWS V14.01,2013-03-24 18:06:00,
2013-03-24 14:11:00,88.0,71.9,29.69,SW,228,10.0,15.0,59,0.00,,---,0.01,VWS V14.01,2013-03-24 18:11:00,
2013-03-24 14:17:00,88.4,71.2,29.69,West,268,14.0,18.0,57,0.00,,---,0.01,VWS V14.01,2013-03-24 18:17:00,
2013-03-24 14:22:00,88.0,71.9,29.69,WSW,250,15.0,18.0,59,0.00,,---,0.01,VWS V14.01,2013-03-24 18:22:00,
2013-03-24 14:27:00,88.2,72.1,29.69,SW,228,11.0,19.0,59,0.00,,---,0.01,VWS V14.01,2013-03-24 18:27:00,
2013-03-24 14:33:00,88.2,72.6,29.68,WSW,239,18.0,19.0,60,0.00,,---,0.01,VWS V14.01,2013-03-24 18:33:00,
2013-03-24 14:38:00,88.6,71.9,29.68,SW,232,12.0,19.0,58,0.00,,---,0.01,VWS V14.01,2013-03-24 18:38:00,
2013-03-24 14:43:00,88.6,71.4,29.68,WSW,248,13.0,19.0,57,0.00,,---,0.01,VWS V14.01,2013-03-24 18:43:00,
2013-03-24 14:48:00,88.6,71.4,29.66,SW,217,19.0,19.0,57,0.00,,---,0.01,VWS V14.01,2013-03-24 18:48:00,
2013-03-24 14:53:00,88.8,71.1,29.66,WSW,249,15.0,19.0,56,0.00,,---,0.01,VWS V14.01,2013-03-24 18:53:00,
2013-03-24 14:59:00,89.3,71.0,29.66,SW,223,5.0,19.0,55,0.00,,---,0.01,VWS V14.01,2013-03-24 18:59:00,
2013-03-24 15:04:00,89.5,71.7,29.66,WSW,239,16.0,17.0,56,0.00,,---,0.01,VWS V14.01,2013-03-24 19:04:00,
2013-03-24 15:09:00,89.5,72.3,29.66,SSW,212,9.0,17.0,57,0.00,,---,0.01,VWS V14.01,2013-03-24 19:09:00,
2013-03-24 15:14:00,89.7,71.9,29.66,West,278,7.0,17.0,56,0.00,,---,0.01,VWS V14.01,2013-03-24 19:14:00,
2013-03-24 15:19:00,89.5,71.7,29.66,SW,227,10.0,17.0,56,0.00,,---,0.01,VWS V14.01,2013-03-24 19:19:00,
2013-03-24 15:24:00,89.7,71.9,29.66,SW,235,5.0,17.0,56,0.00,,---,0.01,VWS V14.01,2013-03-24 19:24:00,
2013-03-24 15:29:00,89.5,72.8,29.66,SW,222,11.0,17.0,58,0.00,,---,0.01,VWS V14.01,2013-03-24 19:29:00,
2013-03-24 15:35:00,89.5,72.3,29.65,WSW,249,10.0,15.0,57,0.00,,---,0.01,VWS V14.01,2013-03-24 19:35:00,
2013-03-24 15:40:00,89.3,72.1,29.65,SW,231,10.0,21.0,57,0.00,,---,0.01,VWS V14.01,2013-03-24 19:40:00,
2013-03-24 15:45:00,89.0,72.3,29.65,SW,216,9.0,21.0,58,0.00,,---,0.01,VWS V14.01,2013-03-24 19:45:00,
2013-03-24 15:50:00,88.6,71.9,29.65,WSW,240,14.0,21.0,58,0.00,,---,0.01,VWS V14.01,2013-03-24 19:50:00,
2013-03-24 15:55:00,88.4,72.3,29.65,WSW,241,8.0,21.0,59,0.00,,---,0.01,VWS V14.01,2013-03-24 19:55:00,
2013-03-24 16:00:00,88.4,71.8,29.65,SSW,194,19.0,21.0,58,0.00,,---,0.01,VWS V14.01,2013-03-24 20:00:00,
2013-03-24 16:06:00,88.6,71.4,29.64,WSW,253,12.0,16.0,57,0.00,,---,0.01,VWS V14.01,2013-03-24 20:06:00,
2013-03-24 16:11:00,88.2,71.1,29.64,WSW,244,15.0,18.0,57,0.00,,---,0.01,VWS V14.01,2013-03-24 20:11:00,
2013-03-24 16:17:00,87.6,71.0,29.64,West,259,14.0,18.0,58,0.00,,---,0.01,VWS V14.01,2013-03-24 20:17:00,
2013-03-24 16:22:00,87.0,71.4,29.64,SW,225,8.0,18.0,60,0.00,,---,0.01,VWS V14.01,2013-03-24 20:22:00,
2013-03-24 16:27:00,87.2,71.6,29.64,WSW,244,11.0,18.0,60,0.00,,---,0.01,VWS V14.01,2013-03-24 20:27:00,
2013-03-24 16:32:00,87.0,71.4,29.65,WSW,237,6.0,18.0,60,0.00,,---,0.01,VWS V14.01,2013-03-24 20:32:00,
2013-03-24 16:38:00,86.7,71.2,29.65,SW,230,10.0,15.0,60,0.00,,---,0.01,VWS V14.01,2013-03-24 20:38:00,
2013-03-24 16:43:00,86.5,71.5,29.65,SW,232,9.0,15.0,61,0.00,,---,0.01,VWS V14.01,2013-03-24 20:43:00,
2013-03-24 16:48:00,87.0,68.9,29.65,SW,236,11.0,15.0,55,0.00,,---,0.01,VWS V14.01,2013-03-24 20:48:00,
2013-03-24 16:54:00,87.0,70.9,29.65,SW,234,10.0,23.0,59,0.00,,---,0.01,VWS V14.01,2013-03-24 20:54:00,
2013-03-24 16:59:00,86.5,71.5,29.65,SSW,212,6.0,23.0,61,0.00,,---,0.01,VWS V14.01,2013-03-24 20:59:00,
2013-03-24 17:04:00,86.7,71.7,29.65,WSW,240,5.0,13.0,61,0.00,,---,0.01,VWS V14.01,2013-03-24 21:04:00,
2013-03-24 17:09:00,87.2,72.1,29.65,West,261,6.0,13.0,61,0.00,,---,0.01,VWS V14.01,2013-03-24 21:09:00,
2013-03-24 17:14:00,87.4,71.3,29.65,SW,225,12.0,16.0,59,0.00,,---,0.01,VWS V14.01,2013-03-24 21:14:00,
2013-03-24 17:20:00,86.5,71.0,29.64,West,260,11.0,16.0,60,0.00,,---,0.01,VWS V14.01,2013-03-24 21:20:00,
2013-03-24 17:25:00,87.0,71.4,29.64,WSW,244,10.0,19.0,60,0.00,,---,0.01,VWS V14.01,2013-03-24 21:25:00,
2013-03-24 17:30:00,86.7,71.2,29.64,West,264,10.0,19.0,60,0.00,,---,0.01,VWS V14.01,2013-03-24 21:30:00,
2013-03-24 17:35:00,86.5,71.0,29.64,WSW,252,13.0,13.0,60,0.00,,---,0.01,VWS V14.01,2013-03-24 21:35:00,
2013-03-24 17:41:00,86.1,71.1,29.64,SW,231,13.0,14.0,61,0.00,,---,0.01,VWS V14.01,2013-03-24 21:41:00,
2013-03-24 17:46:00,86.1,71.1,29.64,SW,236,9.0,14.0,61,0.00,,---,0.01,VWS V14.01,2013-03-24 21:46:00,
2013-03-24 17:52:00,86.1,71.6,29.64,WSW,250,11.0,14.0,62,0.00,,---,0.01,VWS V14.01,2013-03-24 21:52:00,
2013-03-24 17:57:00,85.3,71.3,29.64,SW,219,18.0,18.0,63,0.00,,---,0.01,VWS V14.01,2013-03-24 21:57:00,
2013-03-24 18:02:00,85.1,71.1,29.65,SW,223,10.0,18.0,63,0.00,,---,0.01,VWS V14.01,2013-03-24 22:02:00,
2013-03-24 18:07:00,84.9,70.9,29.65,SW,228,13.0,18.0,63,0.00,,---,0.01,VWS V14.01,2013-03-24 22:07:00,
2013-03-24 18:12:00,84.5,71.0,29.65,SW,224,7.0,19.0,64,0.00,,---,0.01,VWS V14.01,2013-03-24 22:12:00,
2013-03-24 18:17:00,84.5,71.0,29.65,WSW,241,4.0,19.0,64,0.00,,---,0.01,VWS V14.01,2013-03-24 22:17:00,
2013-03-24 18:23:00,84.5,71.4,29.65,SSW,208,12.0,19.0,65,0.00,,---,0.01,VWS V14.01,2013-03-24 22:23:00,
2013-03-24 18:28:00,84.3,71.3,29.65,SSW,213,20.0,20.0,65,0.00,,---,0.01,VWS V14.01,2013-03-24 22:28:00,
2013-03-24 18:33:00,84.1,71.5,29.64,WSW,254,5.0,6.0,66,0.00,,---,0.01,VWS V14.01,2013-03-24 22:33:00,
2013-03-24 18:38:00,84.0,71.9,29.64,SSW,209,13.0,13.0,67,0.00,,---,0.01,VWS V14.01,2013-03-24 22:38:00,
2013-03-24 18:43:00,83.8,71.7,29.64,SSW,201,16.0,17.0,67,0.00,,---,0.01,VWS V14.01,2013-03-24 22:43:00,
2013-03-24 18:49:00,83.6,71.9,29.64,SW,221,13.0,17.0,68,0.00,,---,0.01,VWS V14.01,2013-03-24 22:49:00,
2013-03-24 18:54:00,83.2,71.6,29.64,SW,232,3.0,17.0,68,0.00,,---,0.01,VWS V14.01,2013-03-24 22:54:00,
2013-03-24 18:59:00,83.0,71.4,29.64,SSW,213,7.0,17.0,68,0.00,,---,0.01,VWS V14.01,2013-03-24 22:59:00,
2013-03-24 19:04:00,82.8,71.2,29.66,WSW,237,6.0,15.0,68,0.00,,---,0.01,VWS V14.01,2013-03-24 23:04:00,
2013-03-24 19:09:00,82.4,71.2,29.66,WSW,237,5.0,15.0,69,0.00,,---,0.01,VWS V14.01,2013-03-24 23:09:00,
2013-03-24 19:14:00,82.0,71.3,29.66,WSW,240,8.0,15.0,70,0.00,,---,0.01,VWS V14.01,2013-03-24 23:14:00,
2013-03-24 19:20:00,81.8,71.5,29.67,WSW,244,5.0,15.0,71,0.00,,---,0.01,VWS V14.01,2013-03-24 23:20:00,
2013-03-24 19:25:00,81.6,71.7,29.67,WSW,243,1.0,15.0,72,0.00,,---,0.01,VWS V14.01,2013-03-24 23:25:00,
2013-03-24 19:30:00,81.4,71.5,29.67,WSW,248,5.0,15.0,72,0.00,,---,0.01,VWS V14.01,2013-03-24 23:30:00,
2013-03-24 19:35:00,81.2,71.7,29.68,West,259,4.0,10.0,73,0.00,,---,0.01,VWS V14.01,2013-03-24 23:35:00,
2013-03-24 19:40:00,81.1,71.6,29.68,West,259,4.0,10.0,73,0.00,,---,0.01,VWS V14.01,2013-03-24 23:40:00,
2013-03-24 19:45:00,80.9,71.8,29.68,WSW,238,3.0,10.0,74,0.00,,---,0.01,VWS V14.01,2013-03-24 23:45:00,
2013-03-24 19:50:00,80.7,71.7,29.68,West,261,2.0,10.0,74,0.00,,---,0.01,VWS V14.01,2013-03-24 23:50:00,
2013-03-24 19:56:00,80.5,71.8,29.68,SW,228,6.0,10.0,75,0.00,,---,0.01,VWS V14.01,2013-03-24 23:56:00,
2013-03-24 20:01:00,80.3,71.7,29.68,SW,225,3.0,10.0,75,0.00,,---,0.01,VWS V14.01,2013-03-25 00:01:00,
2013-03-24 20:07:00,80.1,71.9,29.68,WSW,250,3.0,6.0,76,0.00,,---,0.01,VWS V14.01,2013-03-25 00:07:00,
2013-03-24 20:12:00,79.9,71.7,29.68,SW,234,5.0,6.0,76,0.00,,---,0.01,VWS V14.01,2013-03-25 00:12:00,
2013-03-24 20:17:00,79.9,71.7,29.69,SW,219,3.0,6.0,76,0.00,,---,0.01,VWS V14.01,2013-03-25 00:17:00,
2013-03-24 20:22:00,79.8,71.6,29.69,SW,222,1.0,6.0,76,0.00,,---,0.01,VWS V14.01,2013-03-25 00:22:00,
2013-03-24 20:27:00,79.8,71.6,29.69,SW,222,1.0,6.0,76,0.00,,---,0.01,VWS V14.01,2013-03-25 00:27:00,
2013-03-24 20:32:00,79.6,71.4,29.69,SW,227,2.0,6.0,76,0.00,,---,0.01,VWS V14.01,2013-03-25 00:32:00,
2013-03-24 20:37:00,79.6,71.4,29.69,SW,219,2.0,5.0,76,0.00,,---,0.01,VWS V14.01,2013-03-25 00:37:00,
2013-03-24 20:42:00,79.6,71.4,29.69,SW,219,1.0,5.0,76,0.00,,---,0.01,VWS V14.01,2013-03-25 00:42:00,
2013-03-24 20:47:00,79.6,71.8,29.69,SW,222,2.0,5.0,77,0.00,,---,0.01,VWS V14.01,2013-03-25 00:47:00,
2013-03-24 20:52:00,79.6,71.8,29.69,WSW,246,5.0,5.0,77,0.00,,---,0.01,VWS V14.01,2013-03-25 00:52:00,
2013-03-24 20:58:00,79.6,71.8,29.69,WSW,247,1.0,5.0,77,0.00,,---,0.01,VWS V14.01,2013-03-25 00:58:00,
2013-03-24 21:03:00,79.4,71.6,29.71,WSW,247,2.0,2.0,77,0.00,,---,0.01,VWS V14.01,2013-03-25 01:03:00,
2013-03-24 21:08:00,79.4,71.6,29.71,WSW,247,3.0,4.0,77,0.00,,---,0.01,VWS V14.01,2013-03-25 01:08:00,
2013-03-24 21:13:00,79.4,71.6,29.71,WSW,247,2.0,4.0,77,0.00,,---,0.01,VWS V14.01,2013-03-25 01:13:00,
2013-03-24 21:18:00,79.4,71.9,29.71,WSW,247,2.0,4.0,78,0.00,,---,0.01,VWS V14.01,2013-03-25 01:18:00,
2013-03-24 21:24:00,79.4,71.9,29.71,WSW,242,2.0,6.0,78,0.00,,---,0.01,VWS V14.01,2013-03-25 01:24:00,
2013-03-24 21:29:00,79.2,71.8,29.71,WSW,242,3.0,6.0,78,0.00,,---,0.01,VWS V14.01,2013-03-25 01:29:00,
2013-03-24 21:34:00,79.2,71.8,29.71,SW,215,7.0,7.0,78,0.00,,---,0.01,VWS V14.01,2013-03-25 01:34:00,
2013-03-24 21:39:00,79.2,71.8,29.71,SSW,209,3.0,7.0,78,0.00,,---,0.01,VWS V14.01,2013-03-25 01:39:00,
2013-03-24 21:44:00,79.2,71.8,29.71,WSW,249,6.0,7.0,78,0.00,,---,0.01,VWS V14.01,2013-03-25 01:44:00,
2013-03-24 21:49:00,79.2,71.8,29.71,WSW,242,3.0,7.0,78,0.00,,---,0.01,VWS V14.01,2013-03-25 01:49:00,
2013-03-24 21:54:00,79.0,71.6,29.71,WSW,242,2.0,7.0,78,0.00,,---,0.01,VWS V14.01,2013-03-25 01:54:00,
2013-03-24 22:00:00,79.0,71.6,29.71,WSW,243,2.0,7.0,78,0.00,,---,0.01,VWS V14.01,2013-03-25 02:00:00,
2013-03-24 22:05:00,79.0,71.9,29.71,SW,226,2.0,6.0,79,0.00,,---,0.01,VWS V14.01,2013-03-25 02:05:00,
2013-03-24 22:10:00,79.0,71.9,29.71,SW,226,2.0,6.0,79,0.00,,---,0.01,VWS V14.01,2013-03-25 02:10:00,
2013-03-24 22:15:00,79.0,71.9,29.71,SW,226,1.0,6.0,79,0.00,,---,0.01,VWS V14.01,2013-03-25 02:15:00,
2013-03-24 22:20:00,79.0,71.9,29.72,SW,220,7.0,7.0,79,0.00,,---,0.01,VWS V14.01,2013-03-25 02:20:00,
2013-03-24 22:25:00,79.0,72.3,29.72,SW,214,3.0,7.0,80,0.00,,---,0.01,VWS V14.01,2013-03-25 02:25:00,
2013-03-24 22:32:00,79.0,72.3,29.72,SW,231,0.0,7.0,80,0.00,,---,0.01,VWS V14.01,2013-03-25 02:32:00,
2013-03-24 22:37:00,78.8,72.1,29.72,West,259,4.0,7.0,80,0.00,,---,0.01,VWS V14.01,2013-03-25 02:37:00,
2013-03-24 22:42:00,78.8,72.5,29.72,WSW,245,3.0,7.0,81,0.00,,---,0.01,VWS V14.01,2013-03-25 02:42:00,
2013-03-24 22:47:00,78.8,72.5,29.72,WSW,245,3.0,7.0,81,0.00,,---,0.01,VWS V14.01,2013-03-25 02:47:00,
2013-03-24 22:53:00,78.6,72.3,29.72,WSW,240,7.0,7.0,81,0.00,,---,0.01,VWS V14.01,2013-03-25 02:53:00,
2013-03-24 22:58:00,78.6,72.7,29.72,WSW,243,2.0,7.0,82,0.00,,---,0.01,VWS V14.01,2013-03-25 02:58:00,
2013-03-24 23:03:00,78.6,72.7,29.72,WSW,250,4.0,4.0,82,0.00,,---,0.01,VWS V14.01,2013-03-25 03:03:00,
2013-03-24 23:08:00,78.5,72.9,29.72,WSW,247,4.0,5.0,83,0.00,,---,0.01,VWS V14.01,2013-03-25 03:08:00,
2013-03-24 23:13:00,78.3,73.4,29.72,WSW,248,1.0,5.0,85,0.00,,---,0.01,VWS V14.01,2013-03-25 03:13:00,
2013-03-24 23:18:00,77.9,74.1,29.71,WSW,248,0.0,6.0,88,0.00,,---,0.01,VWS V14.01,2013-03-25 03:18:00,
2013-03-24 23:24:00,77.7,74.2,29.71,WSW,248,0.0,6.0,89,0.00,,---,0.01,VWS V14.01,2013-03-25 03:24:00,
2013-03-24 23:29:00,77.6,74.4,29.71,WSW,248,0.0,6.0,90,0.00,,---,0.01,VWS V14.01,2013-03-25 03:29:00,
2013-03-24 23:34:00,77.4,74.2,29.71,WSW,248,1.0,3.0,90,0.00,,---,0.01,VWS V14.01,2013-03-25 03:34:00,
2013-03-24 23:40:00,77.2,74.0,29.71,WSW,248,2.0,3.0,90,0.00,,---,0.01,VWS V14.01,2013-03-25 03:40:00,
2013-03-24 23:45:00,77.2,74.4,29.71,WSW,248,4.0,4.0,91,0.00,,---,0.01,VWS V14.01,2013-03-25 03:45:00,
2013-03-24 23:50:00,77.0,74.2,29.71,WSW,248,0.0,4.0,91,0.00,,---,0.01,VWS V14.01,2013-03-25 03:50:00,
2013-03-24 23:55:00,77.0,74.2,29.71,WSW,248,1.0,4.0,91,0.00,,---,0.01,VWS V14.01,2013-03-25 03:55:00,